Notices

What's New in latest Release from April 7th, 2021:

- Updated Glossary, including Speed of Maximum Gust, and Total Hourly Precipitation

- Updated national and regional climate services offices contacts and prices information

- Addition of station inventory lists for 1981-2010, 1971-2000, and 1961-1990 Normals.

If you haven't already, please take our survey and provide feedback about our website: https://eccc.sondage-survey.ca/f/LanguageSelection.aspx?s=442ca660-fcf1-47c0-95a9-59707d6fd709

Hourly Data Report for February 04, 2004

SHERBROOKE A
QUEBEC

45°26'00.000" N
71°41'00.000" W
241.40 m
7028124
71610
YSC

Download Data

Hourly Data (February 2004)
Hourly Data Report for February 4, 2004
TIME
LST
Temp Definition
°C
Dew Point Definition
°C
Rel Hum Definition
%
Precip. Amount Definition
mm

Wind Dir Definition
10's deg

Wind Spd Definition
km/h
Visibility Definition
km
Stn Press Definition
kPa
Hmdx Definition


Wind Chill Definition


Weather Definition


00:00 -1.9 -5.4 77   8 7 3.4 98.18   -5 Snow
01:00 -2.0 -5.4 78   4 9 3.9 97.98   -5 Snow
02:00 -2.0 -5.2 79   28 11 1.0 98.02   -6 Snow
03:00 -1.9 -5.0 79     0 0.8 97.97     Snow
04:00 -1.9 -5.1 79     0 1.4 97.87     Snow
05:00 -2.0 -5.3 78   10 4 1.0 97.84   -3 Snow
06:00 -2.1 -5.4 78   22 4 8.0 97.84   -4 Snow
07:00 -2.0 -5.4 78   22 7 1.9 97.87   -5 Snow
08:00 -1.9 -5.0 79   23 11 1.2 97.92   -6 Snow
09:00 -0.8 -4.1 78   25 15 2.4 97.98   -5 Snow
10:00 -0.8 -4.1 78   26 26 2.4 98.06   -7 Snow
11:00 -0.9 -4.4 77   26 22 1.6 98.19   -7 Snow
12:00 -2.9 -7.0 73   27 30 4.8 98.29   -10 Snow
13:00 -3.9 -8.1 73   25 20 1.6 98.41   -10 Snow
14:00 -4.8 -8.9 73   25 20 2.4 98.53   -11 Snow
15:00 -5.1 -10.1 68   26 30 4.8 98.63   -13 Snow Showers
16:00 -5.7 -10.9 67   26 35 12.9 98.76   -14 Snow Showers
17:00 -5.8 -11.8 63   27 33 19.3 98.86   -14 Snow Showers
18:00 -6.4 -13.0 59   27 26 8.0 98.99   -14  
19:00 -7.3 -14.5 56   26 20 15.0 99.09   -14  
20:00 -7.7 -15.2 55   28 32 15.0 99.13   -17  
21:00 -8.4 -15.8 55   27 17 15.0 99.18   -15  
22:00 -8.0 -16.3 51   26 26 15.0 99.17   -16  
23:00 -9.1 -15.2 61   26 30 4.8 99.20   -18 Snow

Notes on Data Quality.

Legend

  • E = Estimated
  • M = Missing
  • NA = Not Available*
  • [empty] = Indicates an unobserved value
Date modified: